Time,TemperatureF,DewpointF,PressureIn,WindDirection,WindDirectionDegrees,WindSpeedMPH,WindSpeedGustMPH,Humidity,HourlyPrecipIn,Conditions,Clouds,dailyrainin,SoftwareType,DateUTC
2013-01-30 03:00:00,56.0,55.0,29.60,South,180,24.0,-999.0,99,-99.99,,,-99.99,,2013-01-30 03:00:00,
2013-01-30 03:21:00,56.0,55.0,29.60,South,180,24.0,-999.0,99,-99.99,,,-99.99,,2013-01-30 03:21:00,
2013-01-30 03:31:00,56.0,55.0,29.60,South,180,24.0,-999.0,99,-99.99,,,-99.99,,2013-01-30 03:31:00,
2013-01-30 03:41:00,56.0,55.0,29.60,South,180,24.0,-999.0,99,-99.99,,,-99.99,,2013-01-30 03:41:00,
2013-01-30 03:51:00,56.0,55.0,29.60,South,180,24.0,-999.0,99,-99.99,,,-99.99,,2013-01-30 03:51:00,
2013-01-30 04:21:00,57.0,56.0,29.55,South,180,26.0,-999.0,98,-99.99,,,-99.99,,2013-01-30 04:21:00,
2013-01-30 04:31:00,57.0,56.0,29.55,South,180,26.0,-999.0,98,-99.99,,,-99.99,,2013-01-30 04:31:00,
2013-01-30 04:41:00,57.0,56.0,29.55,South,180,26.0,-999.0,98,-99.99,,,-99.99,,2013-01-30 04:41:00,
2013-01-30 04:51:00,57.0,56.0,29.55,South,180,26.0,-999.0,98,-99.99,,,-99.99,,2013-01-30 04:51:00,
2013-01-30 05:00:00,58.0,55.0,29.51,South,170,23.0,-999.0,89,-99.99,,,-99.99,,2013-01-30 05:00:00,
2013-01-30 05:21:00,58.0,55.0,29.51,South,170,23.0,-999.0,89,-99.99,,,-99.99,,2013-01-30 05:21:00,
2013-01-30 05:31:00,58.0,55.0,29.51,South,170,23.0,-999.0,89,-99.99,,,-99.99,,2013-01-30 05:31:00,
2013-01-30 05:42:00,58.0,55.0,29.51,South,170,23.0,-999.0,89,-99.99,,,-99.99,,2013-01-30 05:42:00,
2013-01-30 05:51:00,58.0,55.0,29.51,South,170,23.0,-999.0,89,-99.99,,,-99.99,,2013-01-30 05:51:00,
2013-01-30 10:00:00,40.0,39.0,29.25,NNW,340,21.0,-999.0,99,-99.99,,,-99.99,,2013-01-30 10:00:00,
2013-01-30 10:21:00,40.0,39.0,29.25,NNW,340,21.0,-999.0,99,-99.99,,,-99.99,,2013-01-30 10:21:00,
2013-01-30 10:31:00,40.0,39.0,29.25,NNW,340,21.0,-999.0,99,-99.99,,,-99.99,,2013-01-30 10:31:00,
2013-01-30 10:41:00,40.0,39.0,29.25,NNW,340,21.0,-999.0,99,-99.99,,,-99.99,,2013-01-30 10:41:00,
2013-01-30 10:51:00,40.0,39.0,29.25,NNW,340,21.0,-999.0,99,-99.99,,,-99.99,,2013-01-30 10:51:00,
2013-01-30 12:00:00,36.0,36.0,29.23,NNW,330,26.0,-999.0,99,-99.99,,,-99.99,,2013-01-30 12:00:00,
2013-01-30 12:21:00,36.0,36.0,29.23,NNW,330,26.0,-999.0,99,-99.99,,,-99.99,,2013-01-30 12:21:00,
2013-01-30 12:32:00,36.0,36.0,29.23,NNW,330,26.0,-999.0,99,-99.99,,,-99.99,,2013-01-30 12:32:00,
2013-01-30 12:42:00,36.0,36.0,29.23,NNW,330,26.0,-999.0,99,-99.99,,,-99.99,,2013-01-30 12:42:00,
2013-01-30 13:00:00,36.0,36.0,29.22,NNW,330,25.0,-999.0,99,-99.99,,,-99.99,,2013-01-30 13:00:00,
2013-01-30 13:22:00,36.0,36.0,29.22,NNW,330,25.0,-999.0,99,-99.99,,,-99.99,,2013-01-30 13:22:00,
2013-01-30 13:31:00,36.0,36.0,29.22,NNW,330,25.0,-999.0,99,-99.99,,,-99.99,,2013-01-30 13:31:00,
2013-01-30 13:42:00,36.0,36.0,29.22,NNW,330,25.0,-999.0,99,-99.99,,,-99.99,,2013-01-30 13:42:00,
2013-01-30 13:52:00,36.0,36.0,29.22,NNW,330,25.0,-999.0,99,-99.99,,,-99.99,,2013-01-30 13:52:00,
2013-01-30 14:00:00,35.0,35.0,29.22,NNW,340,23.0,-999.0,99,-99.99,,,-99.99,,2013-01-30 14:00:00,
2013-01-30 14:21:00,35.0,35.0,29.22,NNW,340,23.0,-999.0,99,-99.99,,,-99.99,,2013-01-30 14:21:00,
2013-01-30 14:31:00,35.0,35.0,29.22,NNW,340,23.0,-999.0,99,-99.99,,,-99.99,,2013-01-30 14:31:00,
2013-01-30 14:41:00,35.0,35.0,29.22,NNW,340,23.0,-999.0,99,-99.99,,,-99.99,,2013-01-30 14:41:00,
2013-01-30 14:52:00,35.0,35.0,29.22,NNW,340,23.0,-999.0,99,-99.99,,,-99.99,,2013-01-30 14:52:00,
2013-01-30 15:00:00,36.0,36.0,29.24,NNW,330,24.0,-999.0,100,-99.99,,,-99.99,,2013-01-30 15:00:00,
2013-01-30 15:22:00,36.0,36.0,29.24,NNW,330,24.0,-999.0,100,-99.99,,,-99.99,,2013-01-30 15:22:00,
2013-01-30 15:31:00,36.0,36.0,29.24,NNW,330,24.0,-999.0,100,-99.99,,,-99.99,,2013-01-30 15:31:00,
2013-01-30 15:42:00,36.0,36.0,29.24,NNW,330,24.0,-999.0,100,-99.99,,,-99.99,,2013-01-30 15:42:00,
2013-01-30 15:52:00,36.0,36.0,29.24,NNW,330,24.0,-999.0,100,-99.99,,,-99.99,,2013-01-30 15:52:00,
2013-01-30 16:00:00,35.0,35.0,29.29,North,360,17.0,-999.0,99,-99.99,,,-99.99,,2013-01-30 16:00:00,
2013-01-30 16:21:00,35.0,35.0,29.29,North,360,17.0,-999.0,99,-99.99,,,-99.99,,2013-01-30 16:21:00,
2013-01-30 16:31:00,35.0,35.0,29.29,North,360,17.0,-999.0,99,-99.99,,,-99.99,,2013-01-30 16:31:00,
2013-01-30 16:41:00,35.0,35.0,29.29,North,360,17.0,-999.0,99,-99.99,,,-99.99,,2013-01-30 16:41:00,
2013-01-30 16:51:00,35.0,35.0,29.29,North,360,17.0,-999.0,99,-99.99,,,-99.99,,2013-01-30 16:51:00,
2013-01-30 17:00:00,35.0,35.0,29.29,North,10,16.0,-999.0,100,-99.99,,,-99.99,,2013-01-30 17:00:00,
2013-01-30 17:21:00,35.0,35.0,29.29,North,10,16.0,-999.0,100,-99.99,,,-99.99,,2013-01-30 17:21:00,
2013-01-30 17:31:00,35.0,35.0,29.29,North,10,16.0,-999.0,100,-99.99,,,-99.99,,2013-01-30 17:31:00,
2013-01-30 17:41:00,35.0,35.0,29.29,North,10,16.0,-999.0,100,-99.99,,,-99.99,,2013-01-30 17:41:00,
2013-01-30 17:52:00,35.0,35.0,29.29,North,10,16.0,-999.0,100,-99.99,,,-99.99,,2013-01-30 17:52:00,
2013-01-30 18:00:00,35.0,35.0,29.26,NNE,20,16.0,-999.0,100,-99.99,,,-99.99,,2013-01-30 18:00:00,
2013-01-30 18:21:00,35.0,35.0,29.26,NNE,20,16.0,-999.0,100,-99.99,,,-99.99,,2013-01-30 18:21:00,
2013-01-30 18:32:00,35.0,35.0,29.26,NNE,20,16.0,-999.0,100,-99.99,,,-99.99,,2013-01-30 18:32:00,
2013-01-30 18:42:00,35.0,35.0,29.26,NNE,20,16.0,-999.0,100,-99.99,,,-99.99,,2013-01-30 18:42:00,
2013-01-30 18:51:00,35.0,35.0,29.26,NNE,20,16.0,-999.0,100,-99.99,,,-99.99,,2013-01-30 18:51:00,
2013-01-30 19:00:00,33.0,33.0,29.21,NNE,30,20.0,-999.0,99,-99.99,,,-99.99,,2013-01-30 19:00:00,
2013-01-30 19:21:00,33.0,33.0,29.21,NNE,30,20.0,-999.0,99,-99.99,,,-99.99,,2013-01-30 19:21:00,
2013-01-30 19:31:00,33.0,33.0,29.21,NNE,30,20.0,-999.0,99,-99.99,,,-99.99,,2013-01-30 19:31:00,
2013-01-30 19:42:00,33.0,33.0,29.21,NNE,30,20.0,-999.0,99,-99.99,,,-99.99,,2013-01-30 19:42:00,
2013-01-30 19:52:00,33.0,33.0,29.21,NNE,30,20.0,-999.0,99,-99.99,,,-99.99,,2013-01-30 19:52:00,
2013-01-30 20:00:00,32.0,32.0,29.18,NE,40,16.0,-999.0,100,-99.99,,,-99.99,,2013-01-30 20:00:00,
2013-01-30 20:21:00,32.0,32.0,29.18,NE,40,16.0,-999.0,100,-99.99,,,-99.99,,2013-01-30 20:21:00,
2013-01-30 20:32:00,32.0,32.0,29.18,NE,40,16.0,-999.0,100,-99.99,,,-99.99,,2013-01-30 20:32:00,
2013-01-30 20:41:00,32.0,32.0,29.18,NE,40,16.0,-999.0,100,-99.99,,,-99.99,,2013-01-30 20:41:00,
2013-01-30 20:52:00,32.0,32.0,29.18,NE,40,16.0,-999.0,100,-99.99,,,-99.99,,2013-01-30 20:52:00,
2013-01-30 21:00:00,31.0,31.0,29.17,NE,40,14.0,-999.0,100,-99.99,,,-99.99,,2013-01-30 21:00:00,
2013-01-30 21:21:00,31.0,31.0,29.17,NE,40,14.0,-999.0,100,-99.99,,,-99.99,,2013-01-30 21:21:00,
2013-01-30 21:31:00,31.0,31.0,29.17,NE,40,14.0,-999.0,100,-99.99,,,-99.99,,2013-01-30 21:31:00,
2013-01-30 21:41:00,31.0,31.0,29.17,NE,40,14.0,-999.0,100,-99.99,,,-99.99,,2013-01-30 21:41:00,
2013-01-30 21:52:00,31.0,31.0,29.17,NE,40,14.0,-999.0,100,-99.99,,,-99.99,,2013-01-30 21:52:00,
2013-01-30 22:00:00,29.0,29.0,29.16,North,10,16.0,-999.0,99,-99.99,,,-99.99,,2013-01-30 22:00:00,
2013-01-30 22:21:00,29.0,29.0,29.16,North,10,16.0,-999.0,99,-99.99,,,-99.99,,2013-01-30 22:21:00,
2013-01-30 22:31:00,29.0,29.0,29.16,North,10,16.0,-999.0,99,-99.99,,,-99.99,,2013-01-30 22:31:00,
2013-01-30 22:41:00,29.0,29.0,29.16,North,10,16.0,-999.0,99,-99.99,,,-99.99,,2013-01-30 22:41:00,
2013-01-30 22:52:00,29.0,29.0,29.16,North,10,16.0,-999.0,99,-99.99,,,-99.99,,2013-01-30 22:52:00,
2013-01-30 23:00:00,26.0,26.0,29.16,North,360,25.0,-999.0,100,-99.99,,,-99.99,,2013-01-30 23:00:00,
2013-01-30 23:21:00,26.0,26.0,29.16,North,360,25.0,-999.0,100,-99.99,,,-99.99,,2013-01-30 23:21:00,
2013-01-30 23:32:00,26.0,26.0,29.16,North,360,25.0,-999.0,100,-99.99,,,-99.99,,2013-01-30 23:32:00,
2013-01-30 23:42:00,26.0,26.0,29.16,North,360,25.0,-999.0,100,-99.99,,,-99.99,,2013-01-30 23:42:00,
2013-01-30 23:52:00,26.0,26.0,29.16,North,360,25.0,-999.0,100,-99.99,,,-99.99,,2013-01-30 23:52:00,